Showing default

HEALTHSAT 1, 22827

Orbit data source: Space-Track

HEALTHSAT 1, 22827 is a payload satellite owned by AMSAT-I (US) in SSO that was launched on Sun, 26 Sep 1993 UTC via an ARIANE 40 launch vehicle from the French Guiana (FRGUI). Payload-class satellites include a variety of spacecraft equipped with specific instruments for various scientific and technological missions. These include communications satellites like Starlink; space stations such as the ISS; scientific satellites like the Hubble; Earth observation satellites from companies like Planet Labs, Umbra, and HawkEye 360; GPS; miniature CubeSats for education and research; and military/defense satellites.

Loading next visibility...
Identifier
22827, 1993-061E
Orbit
SSO
Country
Flag of USUS
Related business
Manufacturer
AMSAT-I
Mission
Non-operational Amateur Communications
Bus & Motor
MICROSAT, Unknown motor
Mass
12 kg wet, 12 kg dry
Launch date (UTC)
1993-09-26 (33 years ago)
Launch vehicle
ARIANE 40
Launch site
French Guiana (FRGUI)
Object type
Payload
Rocket body
Debris
Shape & HBR
Box, 0.3 m
Radar Cross Section
0.135 m², Medium (>0.1 m² and < 1m²)

Expand to show TLE details & history
Last TLE update: 10 hours ago

TLE from 10 hours ago
0 HEALTHSAT 1
1 22827U 93061E   26255.71700280  .00000102  00000-0  53920-4 0  9991
2 22827  98.6331 323.8336 0009793 125.7289 352.4333 14.32574334720629
Epoch: 2026-09-12T17:12Z
TLE epoch observation values (Epoch: 2026-09-12T17:12:29.041Z)
Latitude
60.75859°
Longitude
-90.3595°
Altitude
786.522 km
Speed
7.47 km/s
True Right ascension
10h 37m 56s
True Declination
60° 36' 44"
Sunlit
Object was in daylight at epoch
Visualization orbit readout
Latitude
Unknown
Longitude
Unknown
Altitude
Unknown
Speed
Unknown
Apparent Right ascension
Unknown
Apparent Declination
Unknown
Sunlit
N/A
Visualization observer readout
Local Sidereal Time
19:49:30
Azimuth
Unknown
Elevation
Unknown
Doppler factor
Unknown
Orbital elements
Apogee altitude
787.287 km
Perigee altitude
773.267 km
Semi-major axis
7,158.414 km
Eccentricity
0.00098
Inclination
98.6331°
RAAN
323.8336°
Arg. of periapsis
125.7289°
True anomaly
352.4185°
Mean anomaly
352.4333°
Eccentric anomaly
352.4259°
Mean motion
3.58359 °/min
Orbital period
100.46 mins
BSTAR
0.00005392
Loading maneuver chart data...
Computing Atmospheric mass density...
Loading historical data...
Loading historical data...
Loading historical data...
Loading historical data...
Loading historical data...
Loading historical data...
Loading historical data...

Documentation

Showing up to 5 results
|